Year,Month,Day,Hour,Minute,Value (Times are PST for temperature in C)
2009,06,03,00,00,19.50
2009,06,03,00,01,19.50
2009,06,03,00,02,19.50
2009,06,03,00,03,19.50
2009,06,03,00,04,19.50
2009,06,03,00,05,19.40
2009,06,03,00,06,19.40
2009,06,03,00,07,19.40
2009,06,03,00,08,19.40
2009,06,03,00,09,19.40
2009,06,03,00,10,19.40
2009,06,03,00,11,19.40
2009,06,03,00,12,19.40
2009,06,03,00,13,19.40
2009,06,03,00,14,19.40
2009,06,03,00,15,19.40
2009,06,03,00,16,19.30
2009,06,03,00,17,19.30
2009,06,03,00,18,19.30
2009,06,03,00,19,19.20
2009,06,03,00,20,19.20
2009,06,03,00,21,19.10
2009,06,03,00,22,19.10
2009,06,03,00,23,19.10
2009,06,03,00,24,19.10
2009,06,03,00,25,19.10
2009,06,03,00,26,19.10
2009,06,03,00,27,18.90
2009,06,03,00,28,18.90
2009,06,03,00,29,18.90
2009,06,03,00,30,18.90
2009,06,03,00,31,18.90
2009,06,03,00,32,18.90
2009,06,03,00,33,18.80
2009,06,03,00,34,18.80
2009,06,03,00,35,18.80
2009,06,03,00,36,18.80
2009,06,03,00,37,18.70
2009,06,03,00,38,18.70
2009,06,03,00,39,18.70
2009,06,03,00,40,18.70
2009,06,03,00,41,18.70
2009,06,03,00,42,18.70
2009,06,03,00,43,18.60
2009,06,03,00,44,18.60
2009,06,03,00,45,18.60
2009,06,03,00,46,18.60
2009,06,03,00,47,18.60
2009,06,03,00,48,18.70
2009,06,03,00,49,18.70
2009,06,03,00,50,18.70
2009,06,03,00,51,18.70
2009,06,03,00,52,18.70
2009,06,03,00,53,18.70
2009,06,03,00,54,18.70
2009,06,03,00,55,18.70
2009,06,03,00,56,18.70
2009,06,03,00,57,18.70
2009,06,03,00,58,18.60
2009,06,03,00,59,18.60
2009,06,03,01,00,18.60
2009,06,03,01,01,18.60
2009,06,03,01,02,18.60
2009,06,03,01,03,18.50
2009,06,03,01,04,18.50
2009,06,03,01,05,18.50
2009,06,03,01,06,18.40
2009,06,03,01,07,18.40
2009,06,03,01,08,18.30
2009,06,03,01,09,18.20
2009,06,03,01,10,18.20
2009,06,03,01,11,18.20
2009,06,03,01,12,18.20
2009,06,03,01,13,18.10
2009,06,03,01,14,18.10
2009,06,03,01,15,18.10
2009,06,03,01,16,18.00
2009,06,03,01,17,17.90
2009,06,03,01,18,17.90
2009,06,03,01,19,17.90
2009,06,03,01,20,17.90
2009,06,03,01,21,17.90
2009,06,03,01,22,17.90
2009,06,03,01,23,17.90
2009,06,03,01,24,17.90
2009,06,03,01,25,17.90
2009,06,03,01,26,17.90
2009,06,03,01,27,17.90
2009,06,03,01,28,17.90
2009,06,03,01,29,17.90
2009,06,03,01,30,17.70
2009,06,03,01,31,17.60
2009,06,03,01,32,17.60
2009,06,03,01,33,17.50
2009,06,03,01,34,17.50
2009,06,03,01,35,17.50
2009,06,03,01,36,17.40
2009,06,03,01,37,17.40
2009,06,03,01,38,17.40
2009,06,03,01,39,17.30
2009,06,03,01,40,17.30
2009,06,03,01,41,17.30
2009,06,03,01,42,17.30
2009,06,03,01,43,17.30
2009,06,03,01,44,17.20
2009,06,03,01,45,17.20
2009,06,03,01,46,17.20
2009,06,03,01,47,17.10
2009,06,03,01,48,17.10
2009,06,03,01,49,17.00
2009,06,03,01,50,17.00
2009,06,03,01,51,17.00
2009,06,03,01,52,16.90
2009,06,03,01,53,16.90
2009,06,03,01,54,16.90
2009,06,03,01,55,16.80
2009,06,03,01,56,16.80
2009,06,03,01,57,16.70
2009,06,03,01,58,16.70
2009,06,03,01,59,16.70
2009,06,03,02,00,16.70
2009,06,03,02,01,16.70
2009,06,03,02,02,16.60
2009,06,03,02,03,16.60
2009,06,03,02,04,16.50
2009,06,03,02,05,16.40
2009,06,03,02,06,16.40
2009,06,03,02,07,16.40
2009,06,03,02,08,16.40
2009,06,03,02,09,16.40
2009,06,03,02,10,16.40
2009,06,03,02,11,16.30
2009,06,03,02,12,16.30
2009,06,03,02,13,16.30
2009,06,03,02,14,16.30
2009,06,03,02,15,16.30
2009,06,03,02,16,16.30
2009,06,03,02,17,16.20
2009,06,03,02,18,16.20
2009,06,03,02,19,16.20
2009,06,03,02,20,16.20
2009,06,03,02,21,16.20
2009,06,03,02,22,16.10
2009,06,03,02,23,16.10
2009,06,03,02,24,16.10
2009,06,03,02,25,16.10
2009,06,03,02,26,16.10
2009,06,03,02,27,16.10
2009,06,03,02,28,16.10
2009,06,03,02,29,16.00
2009,06,03,02,30,15.90
2009,06,03,02,31,15.90
2009,06,03,02,32,15.80
2009,06,03,02,33,15.80
2009,06,03,02,34,15.80
2009,06,03,02,35,15.80
2009,06,03,02,36,15.80
2009,06,03,02,37,15.80
2009,06,03,02,38,15.80
2009,06,03,02,39,15.80
2009,06,03,02,40,15.80
2009,06,03,02,41,15.80
2009,06,03,02,42,15.80
2009,06,03,02,43,15.80
2009,06,03,02,44,15.70
2009,06,03,02,45,15.70
2009,06,03,02,46,15.70
2009,06,03,02,47,15.70
2009,06,03,02,48,15.70
2009,06,03,02,49,15.70
2009,06,03,02,50,15.70
2009,06,03,02,51,15.60
2009,06,03,02,52,15.60
2009,06,03,02,53,15.70
2009,06,03,02,54,15.70
2009,06,03,02,55,15.70
2009,06,03,02,56,15.70
2009,06,03,02,57,15.70
2009,06,03,02,58,15.70
2009,06,03,02,59,15.70
2009,06,03,03,00,15.70
2009,06,03,03,01,15.70
2009,06,03,03,02,15.70
2009,06,03,03,03,15.70
2009,06,03,03,04,15.70
2009,06,03,03,05,15.70
2009,06,03,03,06,15.60
2009,06,03,03,07,15.60
2009,06,03,03,08,15.60
2009,06,03,03,09,15.60
2009,06,03,03,10,15.60
2009,06,03,03,11,15.60
2009,06,03,03,12,15.60
2009,06,03,03,13,15.50
2009,06,03,03,14,15.50
2009,06,03,03,15,15.50
2009,06,03,03,16,15.50
2009,06,03,03,17,15.50
2009,06,03,03,18,15.50
2009,06,03,03,19,15.50
2009,06,03,03,20,15.50
2009,06,03,03,21,15.60
2009,06,03,03,22,15.70
2009,06,03,03,23,15.70
2009,06,03,03,24,15.70
2009,06,03,03,25,15.80
2009,06,03,03,26,15.80
2009,06,03,03,27,15.80
2009,06,03,03,28,15.80
2009,06,03,03,29,15.80
2009,06,03,03,30,15.80
2009,06,03,03,31,15.80
2009,06,03,03,32,15.80
2009,06,03,03,33,15.80
2009,06,03,03,34,15.70
2009,06,03,03,35,15.70
2009,06,03,03,36,15.60
2009,06,03,03,37,15.60
2009,06,03,03,38,15.50
2009,06,03,03,39,15.50
2009,06,03,03,40,15.40
2009,06,03,03,41,15.40
2009,06,03,03,42,15.30
2009,06,03,03,43,15.30
2009,06,03,03,44,15.30
2009,06,03,03,45,15.30
2009,06,03,03,46,15.20
2009,06,03,03,47,15.20
2009,06,03,03,48,15.20
2009,06,03,03,49,15.10
2009,06,03,03,50,15.10
2009,06,03,03,51,15.10
2009,06,03,03,52,15.10
2009,06,03,03,53,15.10
2009,06,03,03,54,15.00
2009,06,03,03,55,15.00
2009,06,03,03,56,15.00
2009,06,03,03,57,15.00
2009,06,03,03,58,14.90
2009,06,03,03,59,14.90
2009,06,03,04,00,14.90
2009,06,03,04,01,14.80
2009,06,03,04,02,14.80
2009,06,03,04,03,14.80
2009,06,03,04,05,14.80
2009,06,03,04,06,14.70
2009,06,03,04,07,14.70
2009,06,03,04,08,14.70
2009,06,03,04,09,14.60
2009,06,03,04,10,14.60
2009,06,03,04,11,14.60
2009,06,03,04,12,14.50
2009,06,03,04,13,14.40
2009,06,03,04,14,14.40
2009,06,03,04,15,14.30
2009,06,03,04,16,14.30
2009,06,03,04,17,14.20
2009,06,03,04,18,14.20
2009,06,03,04,19,14.20
2009,06,03,04,20,14.20
2009,06,03,04,21,14.20
2009,06,03,04,22,14.20
2009,06,03,04,23,14.20
2009,06,03,04,24,14.20
2009,06,03,04,25,14.20
2009,06,03,04,26,14.20
2009,06,03,04,27,14.20
2009,06,03,04,28,14.20
2009,06,03,04,29,14.20
2009,06,03,04,30,14.20
2009,06,03,04,31,14.20
2009,06,03,04,32,14.10
2009,06,03,04,33,14.10
2009,06,03,04,34,14.10
2009,06,03,04,35,14.10
2009,06,03,04,36,14.10
2009,06,03,04,37,14.10
2009,06,03,04,38,14.10
2009,06,03,04,39,14.00
2009,06,03,04,40,14.00
2009,06,03,04,41,14.00
2009,06,03,04,42,14.00
2009,06,03,04,43,14.10
2009,06,03,04,44,14.10
2009,06,03,04,45,14.10
2009,06,03,04,46,14.10
2009,06,03,04,47,14.10
2009,06,03,04,48,14.10
2009,06,03,04,49,14.10
2009,06,03,04,50,14.10
2009,06,03,04,51,14.10
2009,06,03,04,52,14.10
2009,06,03,04,53,14.10
2009,06,03,04,54,14.10
2009,06,03,04,55,14.10
2009,06,03,04,56,14.10
2009,06,03,04,57,14.10
2009,06,03,04,58,14.10
2009,06,03,04,59,14.10
2009,06,03,05,00,14.00
2009,06,03,05,01,14.00
2009,06,03,05,02,14.00
2009,06,03,05,03,13.90
2009,06,03,05,04,13.90
2009,06,03,05,05,13.90
2009,06,03,05,06,13.90
2009,06,03,05,07,13.90
2009,06,03,05,08,13.80
2009,06,03,05,09,13.80
2009,06,03,05,10,13.80
2009,06,03,05,11,13.70
2009,06,03,05,12,13.70
2009,06,03,05,13,13.70
2009,06,03,05,14,13.70
2009,06,03,05,15,13.70
2009,06,03,05,16,13.70
2009,06,03,05,17,13.60
2009,06,03,05,18,13.60
2009,06,03,05,19,13.60
2009,06,03,05,20,13.60
2009,06,03,05,21,13.50
2009,06,03,05,22,13.50
2009,06,03,05,23,13.50
2009,06,03,05,24,13.50
2009,06,03,05,25,13.50
2009,06,03,05,26,13.50
2009,06,03,05,27,13.40
2009,06,03,05,28,13.40
2009,06,03,05,29,13.40
2009,06,03,05,30,13.50
2009,06,03,05,31,13.50
2009,06,03,05,32,13.50
2009,06,03,05,33,13.50
2009,06,03,05,34,13.50
2009,06,03,05,35,13.50
2009,06,03,05,36,13.50
2009,06,03,05,37,13.50
2009,06,03,05,38,13.50
2009,06,03,05,39,13.50
2009,06,03,05,40,13.50
2009,06,03,05,41,13.50
2009,06,03,05,42,13.50
2009,06,03,05,43,13.50
2009,06,03,05,44,13.50
2009,06,03,05,45,13.50
2009,06,03,05,46,13.60
2009,06,03,05,47,13.60
2009,06,03,05,48,13.70
2009,06,03,05,49,13.70
2009,06,03,05,50,13.70
2009,06,03,05,51,13.70
2009,06,03,05,52,13.70
2009,06,03,05,53,13.80
2009,06,03,05,54,13.80
2009,06,03,05,55,13.90
2009,06,03,05,56,14.00
2009,06,03,05,57,14.00
2009,06,03,05,58,14.10
2009,06,03,05,59,14.20
2009,06,03,06,00,14.20
2009,06,03,06,01,14.30
2009,06,03,06,02,14.40
2009,06,03,06,03,14.50
2009,06,03,06,04,14.60
2009,06,03,06,05,14.70
2009,06,03,06,06,14.80
2009,06,03,06,07,14.90
2009,06,03,06,08,14.90
2009,06,03,06,09,15.00
2009,06,03,06,10,15.00
2009,06,03,06,11,15.00
2009,06,03,06,12,15.00
2009,06,03,06,13,15.10
2009,06,03,06,14,15.10
2009,06,03,06,15,15.10
2009,06,03,06,16,15.10
2009,06,03,06,17,15.20
2009,06,03,06,18,15.20
2009,06,03,06,19,15.20
2009,06,03,06,20,15.30
2009,06,03,06,21,15.30
2009,06,03,06,22,15.30
2009,06,03,06,23,15.30
2009,06,03,06,24,15.30
2009,06,03,06,25,15.30
2009,06,03,06,26,15.30
2009,06,03,06,27,15.30
2009,06,03,06,28,15.30
2009,06,03,06,29,15.30
2009,06,03,06,30,15.30
2009,06,03,06,31,15.30
2009,06,03,06,32,15.30
2009,06,03,06,33,15.30
2009,06,03,06,34,15.30
2009,06,03,06,35,15.40
2009,06,03,06,36,15.40
2009,06,03,06,37,15.50
2009,06,03,06,38,15.50
2009,06,03,06,39,15.50
2009,06,03,06,40,15.60
2009,06,03,06,41,15.60
2009,06,03,06,42,15.60
2009,06,03,06,43,15.70
2009,06,03,06,44,15.80
2009,06,03,06,45,15.80
2009,06,03,06,46,15.80
2009,06,03,06,47,15.90
2009,06,03,06,48,16.10
2009,06,03,06,49,16.10
2009,06,03,06,50,16.10
2009,06,03,06,51,16.20
2009,06,03,06,52,16.30
2009,06,03,06,53,16.40
2009,06,03,06,54,16.40
2009,06,03,06,55,16.50
2009,06,03,06,56,16.60
2009,06,03,06,57,16.70
2009,06,03,06,58,16.70
2009,06,03,06,59,16.80
2009,06,03,07,00,16.90
2009,06,03,07,01,17.00
2009,06,03,07,02,17.00
2009,06,03,07,03,17.10
2009,06,03,07,04,17.20
2009,06,03,07,05,17.30
2009,06,03,07,06,17.30
2009,06,03,07,07,17.40
2009,06,03,07,08,17.40
2009,06,03,07,09,17.50
2009,06,03,07,10,17.50
2009,06,03,07,11,17.60
2009,06,03,07,12,17.70
2009,06,03,07,13,17.70
2009,06,03,07,14,17.80
2009,06,03,07,15,17.90
2009,06,03,07,16,17.90
2009,06,03,07,17,17.90
2009,06,03,07,18,18.10
2009,06,03,07,19,18.10
2009,06,03,07,20,18.20
2009,06,03,07,21,18.20
2009,06,03,07,22,18.30
2009,06,03,07,23,18.40
2009,06,03,07,24,18.50
2009,06,03,07,25,18.50
2009,06,03,07,26,18.60
2009,06,03,07,27,18.70
2009,06,03,07,28,18.80
2009,06,03,07,29,18.80
2009,06,03,07,30,18.80
2009,06,03,07,31,18.90
2009,06,03,07,32,18.90
2009,06,03,07,33,18.90
2009,06,03,07,34,19.00
2009,06,03,07,35,19.10
2009,06,03,07,36,19.10
2009,06,03,07,37,19.20
2009,06,03,07,38,19.30
2009,06,03,07,39,19.40
2009,06,03,07,40,19.50
2009,06,03,07,41,19.60
2009,06,03,07,42,19.70
2009,06,03,07,43,19.90
2009,06,03,07,44,20.00
2009,06,03,07,45,20.10
2009,06,03,07,46,20.20
2009,06,03,07,47,20.30
2009,06,03,07,48,20.40
2009,06,03,07,49,20.50
2009,06,03,07,50,20.60
2009,06,03,07,51,20.70
2009,06,03,07,52,20.80
2009,06,03,07,53,20.90
2009,06,03,07,54,21.00
2009,06,03,07,55,21.00
2009,06,03,07,56,21.20
2009,06,03,07,57,21.30
2009,06,03,07,58,21.40
2009,06,03,07,59,21.50
2009,06,03,08,00,21.60
2009,06,03,08,01,21.70
2009,06,03,08,02,21.80
2009,06,03,08,03,21.90
2009,06,03,08,04,22.00
2009,06,03,08,05,22.00
2009,06,03,08,06,22.10
2009,06,03,08,07,22.20
2009,06,03,08,08,22.20
2009,06,03,08,09,22.30
2009,06,03,08,10,22.40
2009,06,03,08,11,22.40
2009,06,03,08,12,22.40
2009,06,03,08,13,22.50
2009,06,03,08,14,22.40
2009,06,03,08,15,22.50
2009,06,03,08,16,22.50
2009,06,03,08,17,22.60
2009,06,03,08,18,22.60
2009,06,03,08,19,22.60
2009,06,03,08,20,22.70
2009,06,03,08,21,22.70
2009,06,03,08,22,22.80
2009,06,03,08,23,22.80
2009,06,03,08,24,22.90
2009,06,03,08,25,22.90
2009,06,03,08,26,22.90
2009,06,03,08,27,22.90
2009,06,03,08,28,22.90
2009,06,03,08,29,22.90
2009,06,03,08,30,23.00
2009,06,03,08,31,23.10
2009,06,03,08,32,23.10
2009,06,03,08,33,23.10
2009,06,03,08,34,23.20
2009,06,03,08,35,23.20
2009,06,03,08,36,23.20
2009,06,03,08,37,23.20
2009,06,03,08,38,23.20
2009,06,03,08,39,23.20
2009,06,03,08,40,23.20
2009,06,03,08,41,23.20
2009,06,03,08,42,23.20
2009,06,03,08,43,23.20
2009,06,03,08,44,23.20
2009,06,03,08,45,23.30
2009,06,03,08,46,23.30
2009,06,03,08,47,23.30
2009,06,03,08,48,23.30
2009,06,03,08,49,23.30
2009,06,03,08,50,23.40
2009,06,03,08,51,23.40
2009,06,03,08,52,23.40
2009,06,03,08,53,23.40
2009,06,03,08,54,23.60
2009,06,03,08,55,23.60
2009,06,03,08,56,23.70
2009,06,03,08,57,23.70
2009,06,03,08,58,23.80
2009,06,03,08,59,23.80
2009,06,03,09,00,23.90
2009,06,03,09,01,24.10
2009,06,03,09,02,24.10
2009,06,03,09,03,24.20
2009,06,03,09,04,24.30
2009,06,03,09,05,24.30
2009,06,03,09,06,24.30
2009,06,03,09,07,24.30
2009,06,03,09,08,24.30
2009,06,03,09,09,24.20
2009,06,03,09,10,24.20
2009,06,03,09,11,24.20
2009,06,03,09,12,24.10
2009,06,03,09,13,24.20
2009,06,03,09,14,24.20
2009,06,03,09,15,24.20
2009,06,03,09,16,24.10
2009,06,03,09,17,24.10
2009,06,03,09,18,24.10
2009,06,03,09,19,24.10
2009,06,03,09,20,24.10
2009,06,03,09,21,24.10
2009,06,03,09,22,24.10
2009,06,03,09,23,24.10
2009,06,03,09,24,24.10
2009,06,03,09,25,24.10
2009,06,03,09,26,24.10
2009,06,03,09,27,24.10
2009,06,03,09,28,24.10
2009,06,03,09,29,24.10
2009,06,03,09,30,24.10
2009,06,03,09,31,24.10
2009,06,03,09,32,24.10
2009,06,03,09,33,24.10
2009,06,03,09,34,24.20
2009,06,03,09,35,24.20
2009,06,03,09,36,24.20
2009,06,03,09,37,24.30
2009,06,03,09,38,24.30
2009,06,03,09,39,24.30
2009,06,03,09,40,24.40
2009,06,03,09,41,24.50
2009,06,03,09,42,24.60
2009,06,03,09,43,24.60
2009,06,03,09,44,24.70
2009,06,03,09,45,24.70
2009,06,03,09,46,24.60
2009,06,03,09,47,24.60
2009,06,03,09,48,24.70
2009,06,03,09,49,24.70
2009,06,03,09,50,24.70
2009,06,03,09,51,24.70
2009,06,03,09,52,24.70
2009,06,03,09,53,24.80
2009,06,03,09,54,24.80
2009,06,03,09,55,24.80
2009,06,03,09,56,24.80
2009,06,03,09,57,24.80
2009,06,03,09,58,24.90
2009,06,03,09,59,24.90
2009,06,03,10,00,25.00
2009,06,03,10,01,25.10
2009,06,03,10,02,25.10
2009,06,03,10,03,25.10
2009,06,03,10,04,25.20
2009,06,03,10,05,25.30
2009,06,03,10,06,25.30
2009,06,03,10,07,25.40
2009,06,03,10,08,25.40
2009,06,03,10,09,25.50
2009,06,03,10,10,25.50
2009,06,03,10,11,25.50
2009,06,03,10,12,25.50
2009,06,03,10,13,25.40
2009,06,03,10,14,25.40
2009,06,03,10,15,25.50
2009,06,03,10,16,25.50
2009,06,03,10,17,25.50
2009,06,03,10,18,25.50
2009,06,03,10,19,25.50
2009,06,03,10,20,25.40
2009,06,03,10,21,25.50
2009,06,03,10,22,25.50
2009,06,03,10,23,25.60
2009,06,03,10,24,25.70
2009,06,03,10,25,25.80
2009,06,03,10,26,25.90
2009,06,03,10,27,25.90
2009,06,03,10,28,26.00
2009,06,03,10,29,26.00
2009,06,03,10,30,26.10
2009,06,03,10,31,26.10
2009,06,03,10,32,26.10
2009,06,03,10,33,26.10
2009,06,03,10,34,26.10
2009,06,03,10,35,26.20
2009,06,03,10,36,26.20
2009,06,03,10,37,26.20
2009,06,03,10,38,26.20
2009,06,03,10,39,26.30
2009,06,03,10,40,26.30
2009,06,03,10,41,26.40
2009,06,03,10,42,26.60
2009,06,03,10,43,26.60
2009,06,03,10,44,26.70
2009,06,03,10,45,26.70
2009,06,03,10,46,26.70
2009,06,03,10,47,26.70
2009,06,03,10,48,26.70
2009,06,03,10,49,26.70
2009,06,03,10,50,26.70
2009,06,03,10,51,26.60
2009,06,03,10,52,26.60
2009,06,03,10,53,26.60
2009,06,03,10,54,26.60
2009,06,03,10,55,26.70
2009,06,03,10,56,26.70
2009,06,03,10,57,26.70
2009,06,03,10,58,26.70
2009,06,03,10,59,26.60
2009,06,03,11,00,26.60
2009,06,03,11,01,26.60
2009,06,03,11,02,26.60
2009,06,03,11,03,26.70
2009,06,03,11,04,26.80
2009,06,03,11,05,26.90
2009,06,03,11,06,27.10
2009,06,03,11,07,27.20
2009,06,03,11,08,27.20
2009,06,03,11,09,27.30
2009,06,03,11,10,27.30
2009,06,03,11,11,27.30
2009,06,03,11,12,27.40
2009,06,03,11,13,27.40
2009,06,03,11,14,27.40
2009,06,03,11,15,27.40
2009,06,03,11,16,27.30
2009,06,03,11,17,27.20
2009,06,03,11,18,27.10
2009,06,03,11,19,27.20
2009,06,03,11,20,27.20
2009,06,03,11,21,27.30
2009,06,03,11,22,27.20
2009,06,03,11,23,27.30
2009,06,03,11,24,27.20
2009,06,03,11,25,27.20
2009,06,03,11,26,27.20
2009,06,03,11,27,27.20
2009,06,03,11,28,27.20
2009,06,03,11,29,27.20
2009,06,03,11,30,27.30
2009,06,03,11,31,27.30
2009,06,03,11,32,27.30
2009,06,03,11,33,27.40
2009,06,03,11,34,27.40
2009,06,03,11,35,27.40
2009,06,03,11,36,27.40
2009,06,03,11,37,27.60
2009,06,03,11,38,27.60
2009,06,03,11,39,27.60
2009,06,03,11,40,27.50
2009,06,03,11,41,27.40
2009,06,03,11,42,27.40
2009,06,03,11,43,27.40
2009,06,03,11,44,27.30
2009,06,03,11,45,27.40
2009,06,03,11,46,27.60
2009,06,03,11,47,27.70
2009,06,03,11,48,27.70
2009,06,03,11,49,27.70
2009,06,03,11,50,27.70
2009,06,03,11,51,27.70
2009,06,03,11,52,27.60
2009,06,03,11,53,27.60
2009,06,03,11,54,27.60
2009,06,03,11,55,27.60
2009,06,03,11,56,27.60
2009,06,03,11,57,27.60
2009,06,03,11,58,27.60
2009,06,03,11,59,27.70
2009,06,03,12,00,27.80
2009,06,03,12,01,27.90
2009,06,03,12,02,28.00
2009,06,03,12,03,28.00
2009,06,03,12,04,28.10
2009,06,03,12,05,28.10
2009,06,03,12,06,28.20
2009,06,03,12,07,28.10
2009,06,03,12,08,28.10
2009,06,03,12,09,28.10
2009,06,03,12,10,28.10
2009,06,03,12,11,28.20
2009,06,03,12,12,28.20
2009,06,03,12,13,28.10
2009,06,03,12,14,28.00
2009,06,03,12,15,27.90
2009,06,03,12,16,27.90
2009,06,03,12,17,27.90
2009,06,03,12,18,27.90
2009,06,03,12,19,27.80
2009,06,03,12,20,27.80
2009,06,03,12,21,27.70
2009,06,03,12,22,27.50
2009,06,03,12,23,27.30
2009,06,03,12,24,27.30
2009,06,03,12,25,27.20
2009,06,03,12,26,27.30
2009,06,03,12,27,27.30
2009,06,03,12,28,27.30
2009,06,03,12,29,27.40
2009,06,03,12,30,27.40
2009,06,03,12,31,27.40
2009,06,03,12,32,27.60
2009,06,03,12,33,27.70
2009,06,03,12,34,27.70
2009,06,03,12,35,27.70
2009,06,03,12,36,27.70
2009,06,03,12,37,27.70
2009,06,03,12,38,27.80
2009,06,03,12,39,27.70
2009,06,03,12,40,27.60
2009,06,03,12,41,27.50
2009,06,03,12,42,27.30
2009,06,03,12,43,27.30
2009,06,03,12,44,27.20
2009,06,03,12,45,27.20
2009,06,03,12,46,27.30
2009,06,03,12,47,27.20
2009,06,03,12,48,27.20
2009,06,03,12,49,27.30
2009,06,03,12,50,27.30
2009,06,03,12,51,27.30
2009,06,03,12,52,27.30
2009,06,03,12,53,27.30
2009,06,03,12,54,27.40
2009,06,03,12,55,27.40
2009,06,03,12,56,27.40
2009,06,03,12,57,27.40
2009,06,03,12,58,27.40
2009,06,03,12,59,27.40
2009,06,03,13,00,27.40
2009,06,03,13,01,27.40
2009,06,03,13,02,27.30
2009,06,03,13,03,27.30
2009,06,03,13,04,27.30
2009,06,03,13,05,27.30
2009,06,03,13,06,27.30
2009,06,03,13,07,27.30
2009,06,03,13,08,27.30
2009,06,03,13,09,27.30
2009,06,03,13,10,27.30
2009,06,03,13,11,27.30
2009,06,03,13,12,27.30
2009,06,03,13,13,27.30
2009,06,03,13,14,27.30
2009,06,03,13,15,27.30
2009,06,03,13,16,27.30
2009,06,03,13,17,27.30
2009,06,03,13,18,27.30
2009,06,03,13,19,27.40
2009,06,03,13,20,27.50
2009,06,03,13,21,27.60
2009,06,03,13,22,27.50
2009,06,03,13,23,27.40
2009,06,03,13,24,27.40
2009,06,03,13,25,27.30
2009,06,03,13,26,27.30
2009,06,03,13,27,27.30
2009,06,03,13,28,27.40
2009,06,03,13,29,27.40
2009,06,03,13,30,27.40
2009,06,03,13,31,27.50
2009,06,03,13,32,27.50
2009,06,03,13,33,27.30
2009,06,03,13,34,27.30
2009,06,03,13,35,27.30
2009,06,03,13,36,27.30
2009,06,03,13,37,27.30
2009,06,03,13,38,27.30
2009,06,03,13,39,27.30
2009,06,03,13,40,27.30
2009,06,03,13,41,27.30
2009,06,03,13,42,27.20
2009,06,03,13,43,27.30
2009,06,03,13,44,27.30
2009,06,03,13,45,27.40
2009,06,03,13,46,27.30
2009,06,03,13,47,27.30
2009,06,03,13,48,27.30
2009,06,03,13,49,27.30
2009,06,03,13,50,27.30
2009,06,03,13,51,27.30
2009,06,03,13,52,27.30
2009,06,03,13,53,27.30
2009,06,03,13,54,27.50
2009,06,03,13,55,27.60
2009,06,03,13,56,27.70
2009,06,03,13,57,27.70
2009,06,03,13,58,27.80
2009,06,03,13,59,27.70
2009,06,03,14,00,27.70
2009,06,03,14,01,27.80
2009,06,03,14,02,28.00
2009,06,03,14,03,28.00
2009,06,03,14,04,28.00
2009,06,03,14,05,28.00
2009,06,03,14,06,27.90
2009,06,03,14,07,27.70
2009,06,03,14,08,27.60
2009,06,03,14,09,27.50
2009,06,03,14,10,27.40
2009,06,03,14,11,27.40
2009,06,03,14,12,27.60
2009,06,03,14,13,27.60
2009,06,03,14,14,27.60
2009,06,03,14,15,27.60
2009,06,03,14,16,27.80
2009,06,03,14,17,27.90
2009,06,03,14,18,28.10
2009,06,03,14,19,28.20
2009,06,03,14,20,28.20
2009,06,03,14,21,28.20
2009,06,03,14,22,28.20
2009,06,03,14,23,28.20
2009,06,03,14,24,28.10
2009,06,03,14,25,28.00
2009,06,03,14,26,27.90
2009,06,03,14,27,27.90
2009,06,03,14,28,27.90
2009,06,03,14,29,27.90
2009,06,03,14,30,27.90
2009,06,03,14,31,28.00
2009,06,03,14,32,28.20
2009,06,03,14,33,28.30
2009,06,03,14,34,28.40
2009,06,03,14,35,28.50
2009,06,03,14,36,28.70
2009,06,03,14,37,28.70
2009,06,03,14,38,28.70
2009,06,03,14,39,28.70
2009,06,03,14,40,28.70
2009,06,03,14,41,28.70
2009,06,03,14,42,28.70
2009,06,03,14,43,28.70
2009,06,03,14,44,28.60
2009,06,03,14,45,28.50
2009,06,03,14,46,28.30
2009,06,03,14,47,28.30
2009,06,03,14,48,28.20
2009,06,03,14,49,28.30
2009,06,03,14,50,28.30
2009,06,03,14,51,28.40
2009,06,03,14,52,28.40
2009,06,03,14,53,28.50
2009,06,03,14,54,28.60
2009,06,03,14,55,28.80
2009,06,03,14,56,28.90
2009,06,03,14,57,28.90
2009,06,03,14,58,28.80
2009,06,03,14,59,28.80
2009,06,03,15,00,28.70
2009,06,03,15,01,28.70
2009,06,03,15,02,28.60
2009,06,03,15,03,28.70
2009,06,03,15,04,28.80
2009,06,03,15,05,28.90
2009,06,03,15,06,29.00
2009,06,03,15,07,29.10
2009,06,03,15,08,29.30
2009,06,03,15,09,29.40
2009,06,03,15,10,29.40
2009,06,03,15,11,29.40
2009,06,03,15,12,29.60
2009,06,03,15,13,29.70
2009,06,03,15,14,29.80
2009,06,03,15,15,29.90
2009,06,03,15,16,30.00
2009,06,03,15,17,30.10
2009,06,03,15,18,30.20
2009,06,03,15,19,30.30
2009,06,03,15,20,30.10
2009,06,03,15,21,30.00
2009,06,03,15,22,29.90
2009,06,03,15,23,29.80
2009,06,03,15,24,29.70
2009,06,03,15,25,29.60
2009,06,03,15,26,29.60
2009,06,03,15,27,29.60
2009,06,03,15,28,29.60
2009,06,03,15,29,29.60
2009,06,03,15,30,29.70
2009,06,03,15,31,29.90
2009,06,03,15,32,29.90
2009,06,03,15,33,29.90
2009,06,03,15,34,30.10
2009,06,03,15,35,30.10
2009,06,03,15,36,30.10
2009,06,03,15,37,30.00
2009,06,03,15,38,29.80
2009,06,03,15,39,29.70
2009,06,03,15,40,29.50
2009,06,03,15,41,29.40
2009,06,03,15,42,29.30
2009,06,03,15,43,29.20
2009,06,03,15,44,29.10
2009,06,03,15,45,29.00
2009,06,03,15,46,28.90
2009,06,03,15,47,28.90
2009,06,03,15,48,28.90
2009,06,03,15,49,28.90
2009,06,03,15,50,28.90
2009,06,03,15,51,28.90
2009,06,03,15,52,28.90
2009,06,03,15,53,28.90
2009,06,03,15,54,28.80
2009,06,03,15,55,28.80
2009,06,03,15,56,28.80
2009,06,03,15,57,28.80
2009,06,03,15,58,28.80
2009,06,03,15,59,28.80
2009,06,03,16,00,28.80
2009,06,03,16,01,28.80
2009,06,03,16,02,28.70
2009,06,03,16,03,28.70
2009,06,03,16,04,28.80
2009,06,03,16,05,28.70
2009,06,03,16,06,28.70
2009,06,03,16,07,28.70
2009,06,03,16,08,28.70
2009,06,03,16,09,28.70
2009,06,03,16,10,28.70
2009,06,03,16,11,28.70
2009,06,03,16,12,28.60
2009,06,03,16,13,28.60
2009,06,03,16,14,28.60
2009,06,03,16,15,28.70
2009,06,03,16,16,28.70
2009,06,03,16,17,28.80
2009,06,03,16,18,28.80
2009,06,03,16,19,28.90
2009,06,03,16,20,28.90
2009,06,03,16,21,28.90
2009,06,03,16,22,28.90
2009,06,03,16,23,28.90
2009,06,03,16,24,28.90
2009,06,03,16,25,29.00
2009,06,03,16,26,29.10
2009,06,03,16,27,29.30
2009,06,03,16,28,29.40
2009,06,03,16,29,29.40
2009,06,03,16,30,29.40
2009,06,03,16,31,29.40
2009,06,03,16,32,29.40
2009,06,03,16,33,29.40
2009,06,03,16,34,29.50
2009,06,03,16,35,29.60
2009,06,03,16,36,29.70
2009,06,03,16,37,29.80
2009,06,03,16,38,29.80
2009,06,03,16,39,29.80
2009,06,03,16,40,29.80
2009,06,03,16,41,29.80
2009,06,03,16,42,29.70
2009,06,03,16,43,29.70
2009,06,03,16,44,29.60
2009,06,03,16,45,29.60
2009,06,03,16,46,29.70
2009,06,03,16,47,29.70
2009,06,03,16,48,29.50
2009,06,03,16,49,29.50
2009,06,03,16,50,29.40
2009,06,03,16,51,29.50
2009,06,03,16,52,29.60
2009,06,03,16,53,29.80
2009,06,03,16,54,30.00
2009,06,03,16,55,30.10
2009,06,03,16,56,30.30
2009,06,03,16,57,30.40
2009,06,03,16,58,30.60
2009,06,03,16,59,30.60
2009,06,03,17,00,30.60
2009,06,03,17,01,30.70
2009,06,03,17,02,30.70
2009,06,03,17,03,30.70
2009,06,03,17,04,30.80
2009,06,03,17,05,30.80
2009,06,03,17,06,30.70
2009,06,03,17,07,30.70
2009,06,03,17,08,30.70
2009,06,03,17,09,30.70
2009,06,03,17,10,30.70
2009,06,03,17,11,30.80
2009,06,03,17,12,30.80
2009,06,03,17,13,30.80
2009,06,03,17,14,30.70
2009,06,03,17,15,30.70
2009,06,03,17,16,30.70
2009,06,03,17,17,30.80
2009,06,03,17,18,30.80
2009,06,03,17,19,30.90
2009,06,03,17,20,31.00